Weather History for KHQM - November, 2011

Change the Weather History Date:

Sunday, November 27, 2011

  Actual Average Record
Temperature  
Mean Temperature 47 °F 43 °F  
Max Temperature 52 °F 49 °F 57 °F (2013)
Min Temperature 42 °F 38 °F 24 °F (1985)
Degree Days  
Heating Degree Days 18 22  
Month to date heating degree days 510  
Cooling Degree Days 0 0  
Month to date cooling degree days 0  
Year to date cooling degree days 23  
Moisture  
Dew Point 47 °F    
Average Humidity 88    
Maximum Humidity 96    
Minimum Humidity 71    
Precipitation  
Precipitation 0.80 in 0.38 in 3.12 in (1995)
Month to date precipitation 10.04  
Year to date precipitation 56.46  
Sea Level Pressure  
Sea Level Pressure 30.10 in    
Wind  
Wind Speed 18 mph (SSW)    
Max Wind Speed 31 mph    
Max Gust Speed 43 mph    
Visibility 7 miles    
Events Rain    
T = Trace of Precipitation, MM = Missing Value Source: NWS Daily Summary

Daily Weather History Graph

Daily Weather History Graph

Search for Another Location

Airport or City:

Trip Planner

Search our weather history database for the weather conditions in past years. The results will help you decide how hot, cold, wet, or windy it might be!

Date:

Astronomy

Nov. 27, 2011 Rise Set
Actual Time 7:35 AM PST 4:30 PM PST
Civil Twilight 7:01 AM PST 5:05 PM PST
Nautical Twilight 6:23 AM PST 5:43 PM PST
Astronomical Twilight 5:46 AM PST 6:19 PM PST
Moon 10:06 AM PST (11/27) 7:15 PM PST (11/27)
Length of Visible Light 10h 04m
Length of Day
8h 55m
Waxing Crescent, 9% of the Moon is Illuminated
Nov 27
Waxing Crescent
Dec 2
First Quarter
Dec 10
Full
Dec 17
Last Quarter
Dec 24
New

Hourly Weather History & Observations

Time (PST) Temp. Windchill Dew Point Humidity Pressure Visibility Wind Dir Wind Speed Gust Speed Precip Events Conditions
12:21 AM 51.8 °F - 42.8 °F 71% 30.10 in 10.0 mi SSE 11.5 mph - 0.01 in Rain Light Rain
12:53 AM 52.0 °F - 44.1 °F 74% 30.10 in 10.0 mi SSE 17.3 mph - 0.01 in Rain Light Rain
1:53 AM 51.1 °F - 46.9 °F 86% 30.07 in 9.0 mi SE 13.8 mph 23.0 mph 0.02 in Rain Light Rain
2:20 AM 51.8 °F - 48.2 °F 88% 30.05 in 10.0 mi SE 17.3 mph - 0.00 in Rain Light Rain
2:45 AM 51.8 °F - 48.2 °F 88% 30.04 in 10.0 mi SE 19.6 mph 27.6 mph 0.00 in   Mostly Cloudy
2:53 AM 52.0 °F - 48.0 °F 86% 30.04 in 10.0 mi SE 19.6 mph 27.6 mph 0.00 in   Mostly Cloudy
3:00 AM 51.8 °F - 48.2 °F 88% 30.03 in 10.0 mi ESE 19.6 mph 33.4 mph 0.01 in   Mostly Cloudy
3:53 AM 52.0 °F - 48.0 °F 86% 30.03 in 10.0 mi SSE 15.0 mph - 0.01 in   Overcast
4:16 AM 51.8 °F - 48.2 °F 88% 30.00 in 6.0 mi SSE 18.4 mph 26.5 mph N/A   Overcast
4:53 AM 52.0 °F - 48.0 °F 86% 29.99 in 10.0 mi SSE 26.5 mph 35.7 mph 0.00 in Rain Light Rain
5:41 AM 51.8 °F - 48.2 °F 88% 29.96 in 6.0 mi South 26.5 mph 38.0 mph 0.02 in Rain Light Rain
5:51 AM 51.8 °F - 48.2 °F 88% 29.96 in 2.5 mi SSE 27.6 mph 42.6 mph 0.05 in   Overcast
5:53 AM 52.0 °F - 48.9 °F 89% 29.97 in 2.0 mi South 28.8 mph 42.6 mph 0.05 in   Overcast
6:02 AM 51.8 °F - 48.2 °F 88% 29.96 in 2.0 mi SSE 28.8 mph 38.0 mph 0.01 in   Overcast
6:30 AM 51.8 °F - 48.2 °F 88% 29.96 in 3.0 mi SSE 28.8 mph 39.1 mph 0.09 in   Overcast
6:53 AM 52.0 °F - 48.9 °F 89% 29.98 in 4.0 mi SSE 31.1 mph 39.1 mph 0.14 in Rain Rain
7:46 AM 51.8 °F - 50.0 °F 94% 29.97 in 5.0 mi South 29.9 mph 40.3 mph 0.13 in Rain Rain
7:53 AM 52.0 °F - 50.0 °F 93% 29.99 in 5.0 mi South 31.1 mph 40.3 mph 0.15 in Rain Rain
8:37 AM 51.8 °F - 50.0 °F 94% 29.99 in 2.5 mi South 27.6 mph 39.1 mph 0.11 in Rain Rain
8:53 AM 52.0 °F - 50.0 °F 93% 30.00 in 2.0 mi SSW 29.9 mph 38.0 mph 0.17 in Rain Heavy Rain
9:00 AM 51.8 °F - 48.2 °F 88% 30.00 in 4.0 mi SSW 24.2 mph - 0.01 in   Overcast
9:08 AM 51.8 °F - 48.2 °F 88% 30.02 in 5.0 mi SSW 23.0 mph - 0.02 in Rain Rain
9:18 AM 51.8 °F - 48.2 °F 88% 30.03 in 3.0 mi SW 16.1 mph - 0.05 in Rain Rain
9:25 AM 50.0 °F - 48.2 °F 94% 30.04 in 2.5 mi SW 17.3 mph - 0.07 in Rain Rain
9:38 AM 50.0 °F - 48.2 °F 94% 30.05 in 3.0 mi SW 13.8 mph - 0.11 in Rain Rain
9:48 AM 50.0 °F - 48.2 °F 94% 30.04 in 3.0 mi SW 12.7 mph - 0.13 in Rain Light Rain
9:53 AM 50.0 °F - 48.9 °F 96% 30.06 in 3.0 mi SW 10.4 mph - 0.13 in Rain Light Rain
10:53 AM 50.0 °F - 46.9 °F 89% 30.07 in 8.0 mi South 11.5 mph - 0.05 in Rain Light Rain
11:09 AM 50.0 °F - 46.4 °F 87% 30.08 in 10.0 mi South 11.5 mph - 0.00 in Rain Light Rain
11:53 AM 50.0 °F - 48.0 °F 93% 30.08 in 9.0 mi South 15.0 mph - 0.01 in Rain Light Rain
12:06 PM 50.0 °F - 48.2 °F 94% 30.08 in 9.0 mi South 15.0 mph - 0.00 in Rain Light Rain
12:15 PM 51.8 °F - 48.2 °F 88% 30.09 in 3.0 mi SSW 17.3 mph 24.2 mph 0.02 in Rain Rain
12:29 PM 51.8 °F - 48.2 °F 88% 30.10 in 8.0 mi SW 20.7 mph - 0.03 in   Overcast
12:40 PM 51.8 °F - 48.2 °F 88% 30.10 in 7.0 mi SW 17.3 mph - 0.03 in   Overcast
12:53 PM 51.1 °F - 48.0 °F 89% 30.11 in 8.0 mi SSW 16.1 mph - 0.03 in   Overcast
1:07 PM 51.8 °F - 48.2 °F 88% 30.11 in 8.0 mi SW 17.3 mph - N/A   Overcast
1:14 PM 51.8 °F - 48.2 °F 88% 30.11 in 8.0 mi SW 16.1 mph - N/A   Overcast
1:42 PM 51.8 °F - 46.4 °F 82% 30.12 in 9.0 mi WSW 15.0 mph - N/A   Mostly Cloudy
1:53 PM 51.1 °F - 46.9 °F 86% 30.14 in 10.0 mi WSW 13.8 mph 20.7 mph 0.00 in   Mostly Cloudy
2:53 PM 50.0 °F - 46.9 °F 89% 30.17 in 10.0 mi WSW 10.4 mph - 0.01 in   Mostly Cloudy
3:53 PM 50.0 °F - 46.0 °F 86% 30.19 in 10.0 mi WSW 9.2 mph - N/A   Mostly Cloudy
4:06 PM 48.2 °F - 44.6 °F 87% 30.19 in 10.0 mi West 13.8 mph - N/A   Mostly Cloudy
4:53 PM 48.0 °F - 44.1 °F 86% 30.23 in 10.0 mi West 13.8 mph - 0.01 in   Mostly Cloudy
5:53 PM 46.9 °F - 44.1 °F 90% 30.27 in 9.0 mi WNW 5.8 mph - 0.01 in Rain Light Rain
6:53 PM 46.9 °F - 43.0 °F 86% 30.30 in 10.0 mi West 3.5 mph - 0.00 in   Scattered Clouds
7:53 PM 45.0 °F - 41.0 °F 86% 30.33 in 10.0 mi Calm Calm - N/A   Scattered Clouds
8:53 PM 44.1 °F 40.1 °F 41.0 °F 89% 30.35 in 10.0 mi WNW 6.9 mph - N/A   Mostly Cloudy
9:53 PM 43.0 °F 40.3 °F 39.9 °F 89% 30.37 in 10.0 mi NW 4.6 mph - N/A   Clear
10:53 PM 42.1 °F 39.2 °F 39.0 °F 89% 30.39 in 10.0 mi WNW 4.6 mph - N/A   Clear
11:53 PM 42.1 °F 37.7 °F 37.9 °F 85% 30.41 in 10.0 mi WNW 6.9 mph - N/A   Clear